| time (UTC) | temp F | wind direction | speed MPH | gust MPH | rain 1hr in | rain 24hr in | rain mn in | humidity % | barometer mb |
| 20260902230004 | 55 | 215 | 2.0 | 7.0 | 0.00 | 0.00 | 0.00 | 100 | 1009.8 |
| 20260902225504 | 55 | 231 | 2.0 | 7.0 | 0.00 | 0.00 | 0.00 | 100 | 1009.9 |
| 20260902225004 | 55 | 233 | 2.0 | 5.0 | 0.00 | 0.00 | 0.00 | 100 | 1009.8 |
| 20260902224504 | 55 | 235 | 2.0 | 5.0 | 0.00 | 0.00 | 0.00 | 100 | 1009.9 |
| 20260902224025 | 55 | 238 | 2.0 | 5.0 | 0.00 | 0.00 | 0.00 | 100 | 1009.8 |
| 20260902223504 | 55 | 237 | 2.0 | 7.0 | 0.00 | 0.00 | 0.00 | 100 | 1009.9 |
| 20260902223004 | 55 | 230 | 3.0 | 7.0 | 0.00 | 0.00 | 0.00 | 100 | 1009.9 |
| 20260902222525 | 55 | 221 | 2.0 | 6.0 | 0.00 | 0.00 | 0.00 | 100 | 1009.9 |
| 20260902222004 | 55 | 217 | 2.0 | 4.0 | 0.00 | 0.00 | 0.00 | 100 | 1009.9 |
| 20260902221525 | 56 | 216 | 2.0 | 4.0 | 0.00 | 0.00 | 0.00 | 100 | 1009.9 |
| 20260902221004 | 56 | 214 | 2.0 | 5.0 | 0.00 | 0.00 | 0.00 | 100 | 1009.9 |
| 20260902220525 | 56 | 225 | 2.0 | 5.0 | 0.00 | 0.00 | 0.00 | 100 | 1009.9 |
| 20260902220004 | 56 | 243 | 2.0 | 4.0 | 0.00 | 0.00 | 0.00 | 100 | 1009.8 |
| 20260902215504 | 56 | 243 | 2.0 | 4.0 | 0.00 | 0.00 | 0.00 | 100 | 1009.9 |
| 20260902215004 | 56 | 243 | 1.0 | 3.0 | 0.00 | 0.00 | 0.00 | 100 | 1009.8 |
| 20260902214504 | 56 | 243 | 1.0 | 3.0 | 0.00 | 0.00 | 0.00 | 100 | 1009.8 |
| 20260902214004 | 56 | 243 | 1.0 | 3.0 | 0.00 | 0.00 | 0.00 | 100 | 1009.9 |
| 20260902213504 | 56 | 243 | 1.0 | 2.0 | 0.00 | 0.00 | 0.00 | 100 | 1009.9 |
| 20260902213025 | 56 | 243 | 0.0 | 2.0 | 0.00 | 0.00 | 0.00 | 100 | 1009.9 |
| 20260902212504 | 56 | 243 | 0.0 | 3.0 | 0.00 | 0.00 | 0.00 | 100 | 1009.8 |
| 20260902212004 | 56 | 243 | 0.0 | 3.0 | 0.00 | 0.00 | 0.00 | 100 | 1009.8 |
| 20260902211504 | 57 | 243 | 0.0 | 3.0 | 0.00 | 0.00 | 0.00 | 100 | 1009.8 |
| 20260902211004 | 57 | 243 | 1.0 | 3.0 | 0.00 | 0.00 | 0.00 | 100 | 1009.8 |
| 20260902210504 | 57 | 243 | 1.0 | 3.0 | 0.00 | 0.00 | 0.00 | 100 | 1009.7 |
| 20260902210025 | 57 | 243 | 2.0 | 4.0 | 0.00 | 0.00 | 0.00 | 100 | 1009.7 |
| 20260902205504 | 57 | 243 | 1.0 | 4.0 | 0.00 | 0.00 | 0.00 | 100 | 1009.7 |
| 20260902205004 | 57 | 243 | 0.0 | 3.0 | 0.00 | 0.00 | 0.00 | 100 | 1009.7 |
| 20260902204504 | 57 | 243 | 0.0 | 2.0 | 0.00 | 0.00 | 0.00 | 100 | 1009.8 |
| 20260902204004 | 57 | 243 | 0.0 | 2.0 | 0.00 | 0.00 | 0.00 | 100 | 1009.7 |
| 20260902203504 | 58 | 243 | 0.0 | 2.0 | 0.00 | 0.00 | 0.00 | 100 | 1009.7 |
| 20260902203004 | 58 | 243 | 0.0 | 2.0 | 0.00 | 0.00 | 0.00 | 100 | 1009.7 |
| 20260902202504 | 58 | 243 | 0.0 | 2.0 | 0.00 | 0.00 | 0.00 | 100 | 1009.7 |
| 20260902202025 | 58 | 243 | 0.0 | 2.0 | 0.00 | 0.00 | 0.00 | 100 | 1009.7 |
| 20260902201504 | 59 | 243 | 1.0 | 2.0 | 0.00 | 0.00 | 0.00 | 100 | 1009.7 |
| 20260902201025 | 59 | 243 | 1.0 | 2.0 | 0.00 | 0.00 | 0.00 | 100 | 1009.7 |
| 20260902200504 | 59 | 243 | 1.0 | 4.0 | 0.00 | 0.00 | 0.00 | 100 | 1009.7 |
| 20260902200004 | 59 | 243 | 2.0 | 4.0 | 0.00 | 0.00 | 0.00 | 100 | 1009.8 |
| 20260902195504 | 60 | 243 | 2.0 | 5.0 | 0.00 | 0.00 | 0.00 | 100 | 1009.7 |
| 20260902195004 | 60 | 243 | 2.0 | 5.0 | 0.00 | 0.00 | 0.00 | 100 | 1009.8 |
| 20260902194505 | 60 | 244 | 2.0 | 4.0 | 0.00 | 0.00 | 0.00 | 100 | 1009.8 |
| 20260902194004 | 60 | 244 | 2.0 | 4.0 | 0.00 | 0.00 | 0.00 | 100 | 1009.9 |
| 20260902193504 | 60 | 244 | 2.0 | 4.0 | 0.00 | 0.00 | 0.00 | 100 | 1009.8 |
| 20260902193004 | 60 | 244 | 2.0 | 5.0 | 0.00 | 0.00 | 0.00 | 100 | 1009.7 |
| 20260902192504 | 60 | 244 | 3.0 | 5.0 | 0.00 | 0.00 | 0.00 | 100 | 1009.7 |
| 20260902192004 | 60 | 244 | 2.0 | 4.0 | 0.00 | 0.00 | 0.00 | 100 | 1009.7 |
| 20260902191504 | 60 | 244 | 2.0 | 5.0 | 0.00 | 0.00 | 0.00 | 100 | 1009.7 |
| 20260902191004 | 61 | 244 | 1.0 | 5.0 | 0.00 | 0.00 | 0.00 | 100 | 1009.5 |
| 20260902190504 | 61 | 244 | 1.0 | 4.0 | 0.00 | 0.00 | 0.00 | 100 | 1009.5 |
| 20260902190025 | 61 | 244 | 2.0 | 4.0 | 0.00 | 0.00 | 0.00 | 100 | 1009.6 |
| 20260902185504 | 61 | 244 | 2.0 | 5.0 | 0.00 | 0.00 | 0.00 | 100 | 1009.6 |
| 20260902185004 | 61 | 244 | 2.0 | 5.0 | 0.00 | 0.00 | 0.00 | 100 | 1009.5 |
| 20260902184525 | 61 | 244 | 2.0 | 4.0 | 0.00 | 0.00 | 0.00 | 100 | 1009.6 |
| 20260902184004 | 61 | 244 | 2.0 | 7.0 | 0.00 | 0.00 | 0.00 | 100 | 1009.5 |
| 20260902183504 | 62 | 243 | 3.0 | 7.0 | 0.00 | 0.00 | 0.00 | 100 | 1009.5 |
| 20260902183025 | 62 | 242 | 3.0 | 7.0 | 0.00 | 0.00 | 0.00 | 100 | 1009.5 |
| 20260902182504 | 62 | 235 | 3.0 | 7.0 | 0.00 | 0.00 | 0.00 | 100 | 1009.4 |
| 20260902182004 | 62 | 231 | 3.0 | 6.0 | 0.00 | 0.00 | 0.00 | 100 | 1009.4 |
| 20260902181504 | 62 | 232 | 3.0 | 5.0 | 0.00 | 0.00 | 0.00 | 100 | 1009.4 |
| 20260902181004 | 62 | 232 | 2.0 | 5.0 | 0.00 | 0.00 | 0.00 | 100 | 1009.3 |
| 20260902180504 | 62 | 228 | 2.0 | 6.0 | 0.00 | 0.00 | 0.00 | 100 | 1009.3 |
| 20260902180006 | 62 | 225 | 2.0 | 6.0 | 0.00 | 0.00 | 0.00 | 100 | 1009.3 |
| 20260902175504 | 63 | 233 | 2.0 | 5.0 | 0.00 | 0.00 | 0.00 | 100 | 1009.2 |
| 20260902175004 | 63 | 245 | 1.0 | 3.0 | 0.00 | 0.00 | 0.00 | 100 | 1009.3 |
| 20260902174504 | 63 | 245 | 2.0 | 3.0 | 0.00 | 0.00 | 0.00 | 100 | 1009.2 |
| 20260902174004 | 64 | 245 | 2.0 | 5.0 | 0.00 | 0.00 | 0.00 | 100 | 1009.2 |
| 20260902173504 | 64 | 245 | 2.0 | 5.0 | 0.00 | 0.00 | 0.00 | 100 | 1009.2 |
| 20260902173004 | 64 | 245 | 2.0 | 5.0 | 0.00 | 0.00 | 0.00 | 100 | 1009.2 |
| 20260902172504 | 64 | 245 | 3.0 | 8.0 | 0.00 | 0.00 | 0.00 | 100 | 1009.1 |
| 20260902172004 | 64 | 246 | 3.0 | 8.0 | 0.00 | 0.00 | 0.00 | 100 | 1009.2 |
| 20260902171504 | 65 | 247 | 2.0 | 7.0 | 0.00 | 0.00 | 0.00 | 100 | 1009.1 |
| 20260902171025 | 65 | 247 | 3.0 | 8.0 | 0.00 | 0.00 | 0.00 | 100 | 1009.1 |
| 20260902170504 | 65 | 241 | 4.0 | 9.0 | 0.00 | 0.00 | 0.00 | 100 | 1009.1 |
| 20260902170004 | 65 | 240 | 3.0 | 9.0 | 0.00 | 0.00 | 0.00 | 100 | 1009.2 |
| 20260902165504 | 65 | 247 | 3.0 | 8.0 | 0.00 | 0.00 | 0.00 | 100 | 1009.1 |
| 20260902165004 | 66 | 244 | 3.0 | 8.0 | 0.00 | 0.00 | 0.00 | 100 | 1009.2 |
| 20260902164504 | 66 | 243 | 3.0 | 8.0 | 0.00 | 0.00 | 0.00 | 100 | 1009.2 |
| 20260902164025 | 66 | 246 | 3.0 | 9.0 | 0.00 | 0.00 | 0.00 | 100 | 1009.1 |
| 20260902163504 | 66 | 251 | 3.0 | 9.0 | 0.00 | 0.00 | 0.00 | 100 | 1009.1 |
| 20260902163004 | 66 | 259 | 3.0 | 8.0 | 0.00 | 0.00 | 0.00 | 100 | 1009.2 |
| 20260902162504 | 67 | 258 | 4.0 | 13.0 | 0.00 | 0.00 | 0.00 | 100 | 1009.2 |
| 20260902162004 | 67 | 252 | 5.0 | 13.0 | 0.00 | 0.00 | 0.00 | 100 | 1009.2 |
| 20260902161504 | 67 | 251 | 4.0 | 11.0 | 0.00 | 0.00 | 0.00 | 100 | 1009.2 |
| 20260902161025 | 67 | 253 | 4.0 | 10.0 | 0.00 | 0.00 | 0.00 | 100 | 1009.2 |
| 20260902160525 | 67 | 254 | 6.0 | 12.0 | 0.00 | 0.00 | 0.00 | 100 | 1009.2 |
| 20260902160006 | 67 | 256 | 7.0 | 14.0 | 0.00 | 0.00 | 0.00 | 100 | 1009.1 |
| 20260902155504 | 68 | 253 | 7.0 | 14.0 | 0.00 | 0.00 | 0.00 | 100 | 1009.0 |
| 20260902155004 | 68 | 256 | 8.0 | 14.0 | 0.00 | 0.00 | 0.00 | 100 | 1009.1 |
| 20260902154504 | 68 | 260 | 7.0 | 14.0 | 0.00 | 0.00 | 0.00 | 100 | 1009.2 |
| 20260902154025 | 68 | 258 | 5.0 | 14.0 | 0.00 | 0.00 | 0.00 | 100 | 1009.1 |
| 20260902153504 | 69 | 259 | 5.0 | 11.0 | 0.00 | 0.00 | 0.00 | 100 | 1009.0 |
| 20260902153004 | 69 | 256 | 6.0 | 11.0 | 0.00 | 0.00 | 0.00 | 100 | 1009.1 |
| 20260902152504 | 69 | 257 | 6.0 | 13.0 | 0.00 | 0.00 | 0.00 | 100 | 1009.1 |
| 20260902152004 | 69 | 257 | 8.0 | 18.0 | 0.00 | 0.00 | 0.00 | 100 | 1009.1 |
| 20260902151504 | 69 | 258 | 7.0 | 18.0 | 0.00 | 0.00 | 0.00 | 100 | 1009.2 |
| 20260902151004 | 69 | 265 | 6.0 | 15.0 | 0.00 | 0.00 | 0.00 | 100 | 1009.2 |
| 20260902150504 | 69 | 270 | 7.0 | 15.0 | 0.00 | 0.00 | 0.00 | 100 | 1009.2 |
| 20260902150025 | 70 | 263 | 7.0 | 20.0 | 0.00 | 0.00 | 0.00 | 100 | 1009.3 |
| 20260902145525 | 70 | 256 | 7.0 | 20.0 | 0.00 | 0.00 | 0.00 | 100 | 1009.2 |
| 20260902145004 | 70 | 260 | 7.0 | 15.0 | 0.00 | 0.00 | 0.00 | 100 | 1009.5 |
| 20260902144504 | 70 | 263 | 6.0 | 15.0 | 0.00 | 0.00 | 0.00 | 100 | 1009.4 |
| 20260902144004 | 70 | 260 | 6.0 | 14.0 | 0.00 | 0.00 | 0.00 | 100 | 1009.3 |
| 20260902143504 | 70 | 256 | 7.0 | 16.0 | 0.00 | 0.00 | 0.00 | 100 | 1009.3 |
| 20260902143004 | 70 | 258 | 7.0 | 17.0 | 0.00 | 0.00 | 0.00 | 100 | 1009.3 |
| 20260902142504 | 70 | 263 | 6.0 | 17.0 | 0.00 | 0.00 | 0.00 | 100 | 1009.2 |
| 20260902142004 | 70 | 263 | 7.0 | 16.0 | 0.00 | 0.00 | 0.00 | 100 | 1009.2 |
| 20260902141525 | 70 | 258 | 6.0 | 16.0 | 0.00 | 0.00 | 0.00 | 100 | 1009.3 |
| 20260902141025 | 70 | 253 | 4.0 | 10.0 | 0.00 | 0.00 | 0.00 | 100 | 1009.3 |
| 20260902140504 | 69 | 255 | 5.0 | 11.0 | 0.00 | 0.01 | 0.00 | 100 | 1009.4 |
| 20260902140004 | 68 | 258 | 5.0 | 16.0 | 0.00 | 0.01 | 0.00 | 100 | 1009.4 |
| 20260902135504 | 68 | 260 | 6.0 | 16.0 | 0.00 | 0.01 | 0.00 | 100 | 1009.5 |
| 20260902135003 | 68 | 260 | 4.0 | 14.0 | 0.00 | 0.01 | 0.00 | 100 | 1009.3 |
| 20260902134525 | 69 | 259 | 5.0 | 11.0 | 0.00 | 0.01 | 0.00 | 100 | 1009.4 |
| 20260902134004 | 69 | 258 | 6.0 | 16.0 | 0.00 | 0.01 | 0.00 | 100 | 1009.3 |
| 20260902133504 | 70 | 257 | 5.0 | 16.0 | 0.00 | 0.01 | 0.00 | 100 | 1009.5 |
| 20260902133004 | 70 | 252 | 5.0 | 13.0 | 0.00 | 0.01 | 0.00 | 100 | 1009.5 |
| 20260902132504 | 69 | 255 | 6.0 | 14.0 | 0.00 | 0.01 | 0.00 | 100 | 1009.5 |
| 20260902132025 | 69 | 255 | 6.0 | 14.0 | 0.00 | 0.01 | 0.00 | 100 | 1009.5 |
| 20260902131525 | 69 | 248 | 6.0 | 14.0 | 0.00 | 0.01 | 0.00 | 100 | 1009.5 |
| 20260902131004 | 69 | 248 | 6.0 | 13.0 | 0.00 | 0.01 | 0.00 | 100 | 1009.4 |
| 20260902130503 | 68 | 256 | 7.0 | 14.0 | 0.00 | 0.01 | 0.00 | 100 | 1009.5 |
| 20260902130024 | 67 | 253 | 6.0 | 14.0 | 0.00 | 0.01 | 0.00 | 100 | 1009.5 |
| 20260902125503 | 66 | 233 | 3.0 | 11.0 | 0.00 | 0.01 | 0.00 | 100 | 1009.6 |
| 20260902125024 | 65 | 236 | 3.0 | 8.0 | 0.00 | 0.01 | 0.00 | 100 | 1009.6 |
| 20260902124504 | 65 | 250 | 7.0 | 14.0 | 0.00 | 0.01 | 0.00 | 100 | 1009.7 |
| 20260902124003 | 66 | 252 | 10.0 | 21.0 | 0.00 | 0.01 | 0.00 | 100 | 1010.0 |
| 20260902123503 | 67 | 253 | 9.0 | 21.0 | 0.00 | 0.01 | 0.00 | 100 | 1010.0 |
| 20260902123004 | 67 | 252 | 8.0 | 16.0 | 0.00 | 0.01 | 0.00 | 100 | 1009.8 |
| 20260902122503 | 68 | 249 | 7.0 | 15.0 | 0.00 | 0.01 | 0.00 | 100 | 1009.7 |
| 20260902122003 | 68 | 254 | 6.0 | 14.0 | 0.00 | 0.01 | 0.00 | 100 | 1009.7 |
| 20260902121504 | 68 | 251 | 7.0 | 16.0 | 0.00 | 0.01 | 0.00 | 100 | 1009.6 |
| 20260902121003 | 68 | 246 | 7.0 | 16.0 | 0.00 | 0.01 | 0.00 | 100 | 1009.8 |
| 20260902120503 | 69 | 248 | 6.0 | 14.0 | 0.00 | 0.01 | 0.00 | 100 | 1009.7 |
| 20260902120004 | 68 | 254 | 4.0 | 14.0 | 0.00 | 0.01 | 0.00 | 100 | 1009.6 |
| 20260902115503 | 68 | 256 | 3.0 | 11.0 | 0.00 | 0.02 | 0.00 | 100 | 1009.8 |
| 20260902115004 | 68 | 251 | 3.0 | 11.0 | 0.00 | 0.03 | 0.00 | 100 | 1009.9 |
| 20260902114503 | 68 | 252 | 3.0 | 8.0 | 0.00 | 0.08 | 0.00 | 100 | 1009.9 |
| 20260902114004 | 67 | 258 | 3.0 | 8.0 | 0.00 | 0.08 | 0.00 | 100 | 1010.0 |
| 20260902113504 | 67 | 252 | 5.0 | 13.0 | 0.00 | 0.08 | 0.00 | 100 | 1010.1 |
| 20260902113004 | 67 | 245 | 5.0 | 13.0 | 0.00 | 0.08 | 0.00 | 100 | 1010.1 |
| 20260902112504 | 67 | 243 | 5.0 | 11.0 | 0.00 | 0.08 | 0.00 | 100 | 1010.1 |
| 20260902112003 | 68 | 250 | 6.0 | 13.0 | 0.00 | 0.08 | 0.00 | 100 | 1010.2 |
| 20260902111504 | 68 | 252 | 6.0 | 13.0 | 0.00 | 0.08 | 0.00 | 100 | 1010.3 |
| 20260902111003 | 67 | 247 | 6.0 | 13.0 | 0.00 | 0.08 | 0.00 | 100 | 1010.3 |
| 20260902110503 | 66 | 247 | 6.0 | 11.0 | 0.00 | 0.08 | 0.00 | 100 | 1010.4 |
| 20260902110005 | 66 | 250 | 5.0 | 11.0 | 0.00 | 0.08 | 0.00 | 100 | 1010.5 |
| 20260902105524 | 65 | 252 | 4.0 | 11.0 | 0.00 | 0.08 | 0.00 | 100 | 1010.7 |
| 20260902105024 | 65 | 255 | 4.0 | 11.0 | 0.00 | 0.08 | 0.00 | 100 | 1010.6 |
| 20260902104503 | 65 | 255 | 5.0 | 13.0 | 0.00 | 0.08 | 0.00 | 100 | 1010.5 |
| 20260902104003 | 65 | 244 | 5.0 | 13.0 | 0.00 | 0.08 | 0.00 | 100 | 1010.7 |
| 20260902103503 | 66 | 248 | 5.0 | 13.0 | 0.00 | 0.08 | 0.00 | 100 | 1010.5 |
| 20260902103003 | 65 | 255 | 5.0 | 13.0 | 0.00 | 0.08 | 0.00 | 100 | 1010.5 |
| 20260902102524 | 65 | 254 | 5.0 | 13.0 | 0.00 | 0.08 | 0.00 | 100 | 1010.5 |
| 20260902102004 | 65 | 249 | 4.0 | 10.0 | 0.00 | 0.09 | 0.00 | 100 | 1010.4 |
| 20260902101504 | 66 | 241 | 5.0 | 14.0 | 0.00 | 0.09 | 0.00 | 100 | 1010.4 |
| 20260902101003 | 65 | 247 | 6.0 | 14.0 | 0.00 | 0.09 | 0.00 | 100 | 1010.4 |
| 20260902100524 | 65 | 248 | 6.0 | 14.0 | 0.00 | 0.10 | 0.00 | 100 | 1010.5 |
| 20260902100004 | 65 | 246 | 6.0 | 12.0 | 0.00 | 0.17 | 0.00 | 100 | 1010.5 |
| 20260902095503 | 65 | 248 | 5.0 | 12.0 | 0.00 | 0.25 | 0.00 | 100 | 1010.5 |
| 20260902095003 | 65 | 247 | 4.0 | 11.0 | 0.00 | 0.26 | 0.00 | 100 | 1010.5 |
| 20260902094524 | 65 | 246 | 4.0 | 10.0 | 0.00 | 0.26 | 0.00 | 100 | 1010.5 |
| 20260902094025 | 65 | 245 | 5.0 | 9.0 | 0.00 | 0.26 | 0.00 | 100 | 1010.6 |
| 20260902093503 | 64 | 245 | 4.0 | 11.0 | 0.00 | 0.26 | 0.00 | 100 | 1010.6 |
| 20260902093024 | 65 | 249 | 4.0 | 11.0 | 0.00 | 0.26 | 0.00 | 100 | 1010.6 |
| 20260902092503 | 64 | 246 | 4.0 | 11.0 | 0.00 | 0.26 | 0.00 | 100 | 1010.6 |
| 20260902092003 | 64 | 249 | 4.0 | 12.0 | 0.00 | 0.26 | 0.00 | 100 | 1010.5 |
| 20260902091503 | 64 | 245 | 5.0 | 12.0 | 0.00 | 0.26 | 0.00 | 100 | 1010.6 |
| 20260902091003 | 64 | 248 | 5.0 | 12.0 | 0.00 | 0.26 | 0.00 | 100 | 1010.6 |
| 20260902090503 | 64 | 255 | 5.0 | 12.0 | 0.00 | 0.26 | 0.00 | 100 | 1010.8 |
| 20260902090004 | 64 | 255 | 5.0 | 11.0 | 0.00 | 0.26 | 0.00 | 100 | 1010.8 |
| 20260902085503 | 64 | 251 | 5.0 | 13.0 | 0.00 | 0.26 | 0.00 | 100 | 1010.7 |
| 20260902085003 | 64 | 248 | 4.0 | 13.0 | 0.00 | 0.26 | 0.00 | 100 | 1010.6 |
| 20260902084503 | 64 | 248 | 4.0 | 9.0 | 0.00 | 0.26 | 0.00 | 100 | 1010.7 |
| 20260902084003 | 64 | 246 | 4.0 | 12.0 | 0.00 | 0.26 | 0.00 | 100 | 1010.6 |
| 20260902083503 | 63 | 248 | 5.0 | 12.0 | 0.00 | 0.26 | 0.00 | 100 | 1010.8 |
| 20260902083003 | 63 | 249 | 5.0 | 12.0 | 0.00 | 0.26 | 0.00 | 100 | 1010.8 |
| 20260902082503 | 63 | 248 | 6.0 | 13.0 | 0.00 | 0.26 | 0.00 | 100 | 1010.7 |
| 20260902082003 | 62 | 248 | 6.0 | 13.0 | 0.00 | 0.26 | 0.00 | 100 | 1010.7 |
| 20260902081503 | 63 | 245 | 5.0 | 11.0 | 0.00 | 0.26 | 0.00 | 100 | 1010.8 |
| 20260902081003 | 63 | 249 | 4.0 | 11.0 | 0.00 | 0.26 | 0.00 | 100 | 1010.7 |
| 20260902080503 | 63 | 252 | 4.0 | 8.0 | 0.00 | 0.26 | 0.00 | 100 | 1010.6 |
| 20260902080003 | 63 | 251 | 4.0 | 8.0 | 0.00 | 0.26 | 0.00 | 100 | 1010.5 |
| 20260902075503 | 62 | 252 | 4.0 | 9.0 | 0.00 | 0.26 | 0.00 | 100 | 1010.5 |
| 20260902075024 | 62 | 252 | 4.0 | 9.0 | 0.00 | 0.26 | 0.00 | 100 | 1010.7 |
| 20260902074524 | 62 | 253 | 4.0 | 11.0 | 0.00 | 0.26 | 0.00 | 100 | 1010.5 |
| 20260902074003 | 62 | 254 | 6.0 | 14.0 | 0.00 | 0.26 | 0.00 | 100 | 1010.6 |
| 20260902073503 | 62 | 254 | 6.0 | 14.0 | 0.00 | 0.26 | 0.00 | 100 | 1010.6 |
| 20260902073003 | 61 | 254 | 5.0 | 13.0 | 0.00 | 0.26 | 0.00 | 100 | 1010.6 |
| 20260902072524 | 61 | 252 | 5.0 | 11.0 | 0.00 | 0.26 | 0.00 | 100 | 1010.5 |
| 20260902072003 | 61 | 249 | 5.0 | 10.0 | 0.00 | 0.26 | 0.00 | 100 | 1010.5 |
| 20260902071524 | 60 | 249 | 5.0 | 9.0 | 0.00 | 0.26 | 0.00 | 100 | 1010.6 |
| 20260902071003 | 60 | 247 | 3.0 | 9.0 | 0.00 | 0.26 | 0.00 | 100 | 1010.5 |
| 20260902070503 | 60 | 246 | 3.0 | 8.0 | 0.00 | 0.26 | 0.00 | 100 | 1010.6 |
| 20260902070004 | 60 | 252 | 2.0 | 6.0 | 0.00 | 0.26 | 0.00 | 100 | 1010.6 |
| 20260902065503 | 59 | 261 | 3.0 | 8.0 | 0.00 | 0.26 | 0.00 | 100 | 1010.6 |
| 20260902065003 | 59 | 259 | 3.0 | 8.0 | 0.00 | 0.26 | 0.00 | 100 | 1010.5 |
| 20260902064503 | 59 | 255 | 2.0 | 8.0 | 0.00 | 0.26 | 0.00 | 100 | 1010.6 |
| 20260902064003 | 59 | 254 | 3.0 | 9.0 | 0.00 | 0.26 | 0.00 | 100 | 1010.6 |
| 20260902063503 | 59 | 254 | 3.0 | 9.0 | 0.00 | 0.26 | 0.00 | 100 | 1010.5 |
| 20260902063003 | 59 | 252 | 3.0 | 8.0 | 0.00 | 0.26 | 0.00 | 100 | 1010.4 |
| 20260902062503 | 58 | 249 | 3.0 | 8.0 | 0.00 | 0.26 | 0.00 | 100 | 1010.5 |
| 20260902062003 | 58 | 249 | 3.0 | 9.0 | 0.00 | 0.26 | 0.00 | 100 | 1010.6 |
| 20260902061503 | 58 | 247 | 3.0 | 9.0 | 0.00 | 0.26 | 0.00 | 100 | 1010.6 |
| 20260902061024 | 58 | 247 | 3.0 | 9.0 | 0.00 | 0.26 | 0.00 | 100 | 1010.5 |
| 20260902060503 | 58 | 247 | 3.0 | 9.0 | 0.00 | 0.26 | 0.00 | 100 | 1010.5 |
| 20260902060003 | 57 | 248 | 2.0 | 9.0 | 0.00 | 0.26 | 0.00 | 100 | 1010.4 |
| 20260902055503 | 57 | 249 | 2.0 | 5.0 | 0.00 | 0.26 | 0.00 | 100 | 1010.4 |
| 20260902055003 | 57 | 243 | 2.0 | 5.0 | 0.00 | 0.26 | 0.00 | 100 | 1010.5 |
| 20260902054503 | 56 | 231 | 1.0 | 4.0 | 0.00 | 0.26 | 0.00 | 100 | 1010.4 |
| 20260902054003 | 56 | 215 | 1.0 | 4.0 | 0.00 | 0.26 | 0.00 | 100 | 1010.5 |
| 20260902053503 | 56 | 185 | 1.0 | 4.0 | 0.00 | 0.26 | 0.00 | 100 | 1010.5 |
| 20260902053003 | 56 | 163 | 1.0 | 4.0 | 0.00 | 0.26 | 0.00 | 100 | 1010.5 |
| 20260902052503 | 55 | 163 | 1.0 | 4.0 | 0.00 | 0.26 | 0.00 | 100 | 1010.4 |
| 20260902052003 | 55 | 163 | 0.0 | 4.0 | 0.00 | 0.26 | 0.00 | 100 | 1010.4 |
| 20260902051503 | 55 | 0 | 0.0 | 0.0 | 0.00 | 0.26 | 0.00 | 100 | 1010.4 |
| 20260902051003 | 55 | 0 | 0.0 | 0.0 | 0.00 | 0.26 | 0.00 | 100 | 1010.3 |
| 20260902050503 | 55 | 0 | 0.0 | 0.0 | 0.00 | 0.26 | 0.00 | 100 | 1010.3 |
| 20260902050005 | 55 | 0 | 0.0 | 0.0 | 0.00 | 0.26 | 0.00 | 100 | 1010.3 |
| 20260902045503 | 55 | 0 | 0.0 | 0.0 | 0.00 | 0.26 | 0.00 | 100 | 1010.4 |
| 20260902045024 | 55 | 0 | 0.0 | 0.0 | 0.00 | 0.26 | 0.00 | 100 | 1010.3 |
| 20260902044503 | 55 | 0 | 0.0 | 0.0 | 0.00 | 0.26 | 0.00 | 100 | 1010.3 |
| 20260902044003 | 55 | 0 | 0.0 | 0.0 | 0.00 | 0.26 | 0.00 | 100 | 1010.3 |
| 20260902043503 | 55 | 0 | 0.0 | 0.0 | 0.00 | 0.26 | 0.00 | 100 | 1010.3 |
| 20260902043003 | 55 | 0 | 0.0 | 0.0 | 0.00 | 0.26 | 0.00 | 100 | 1010.3 |
| 20260902042503 | 55 | 0 | 0.0 | 0.0 | 0.00 | 0.26 | 0.00 | 100 | 1010.4 |
| 20260902042003 | 56 | 0 | 0.0 | 0.0 | 0.00 | 0.26 | 0.00 | 100 | 1010.3 |
| 20260902041503 | 56 | 0 | 0.0 | 0.0 | 0.00 | 0.26 | 0.00 | 100 | 1010.3 |
| 20260902041003 | 56 | 0 | 0.0 | 0.0 | 0.00 | 0.26 | 0.00 | 100 | 1010.2 |
| 20260902040524 | 56 | 0 | 0.0 | 0.0 | 0.00 | 0.26 | 0.00 | 100 | 1010.4 |
| 20260902040003 | 56 | 244 | 0.0 | 1.0 | 0.00 | 0.26 | 0.00 | 100 | 1010.4 |
| 20260902035503 | 56 | 244 | 0.0 | 1.0 | 0.00 | 0.27 | 0.00 | 100 | 1010.5 |
| 20260902035003 | 56 | 244 | 1.0 | 5.0 | 0.00 | 0.27 | 0.00 | 100 | 1010.4 |
| 20260902034524 | 56 | 243 | 1.0 | 5.0 | 0.00 | 0.27 | 0.00 | 100 | 1010.4 |
| 20260902034003 | 56 | 242 | 0.0 | 3.0 | 0.00 | 0.27 | 0.00 | 100 | 1010.5 |
| 20260902033503 | 55 | 243 | 0.0 | 3.0 | 0.00 | 0.27 | 0.00 | 100 | 1010.4 |
| 20260902033003 | 55 | 0 | 0.0 | 0.0 | 0.00 | 0.27 | 0.00 | 100 | 1010.5 |
| 20260902032503 | 55 | 242 | 0.0 | 2.0 | 0.00 | 0.27 | 0.00 | 100 | 1010.5 |
| 20260902032003 | 55 | 242 | 0.0 | 2.0 | 0.00 | 0.27 | 0.00 | 100 | 1010.5 |
| 20260902031524 | 56 | 242 | 0.0 | 2.0 | 0.00 | 0.27 | 0.00 | 100 | 1010.5 |
| 20260902031003 | 56 | 242 | 0.0 | 2.0 | 0.00 | 0.27 | 0.00 | 100 | 1010.5 |
| 20260902030503 | 56 | 0 | 0.0 | 0.0 | 0.00 | 0.27 | 0.00 | 100 | 1010.5 |
| 20260902030003 | 56 | 0 | 0.0 | 0.0 | 0.00 | 0.27 | 0.00 | 100 | 1010.5 |
| 20260902025503 | 56 | 0 | 0.0 | 0.0 | 0.00 | 0.27 | 0.00 | 100 | 1010.6 |
| 20260902025003 | 56 | 243 | 0.0 | 2.0 | 0.00 | 0.27 | 0.00 | 100 | 1010.5 |
| 20260902024503 | 56 | 243 | 0.0 | 2.0 | 0.00 | 0.27 | 0.00 | 100 | 1010.5 |
| 20260902024003 | 56 | 242 | 0.0 | 2.0 | 0.00 | 0.27 | 0.00 | 100 | 1010.5 |
| 20260902023524 | 56 | 239 | 1.0 | 3.0 | 0.00 | 0.27 | 0.00 | 100 | 1010.5 |
| 20260902023003 | 57 | 239 | 1.0 | 4.0 | 0.00 | 0.27 | 0.00 | 100 | 1010.5 |
| 20260902022503 | 57 | 245 | 1.0 | 4.0 | 0.00 | 0.27 | 0.00 | 100 | 1010.4 |
| 20260902022024 | 57 | 261 | 1.0 | 4.0 | 0.00 | 0.27 | 0.00 | 100 | 1010.5 |
| 20260902021503 | 57 | 266 | 1.0 | 4.0 | 0.00 | 0.27 | 0.00 | 100 | 1010.5 |
| 20260902021003 | 57 | 260 | 1.0 | 4.0 | 0.00 | 0.27 | 0.00 | 100 | 1010.5 |
| 20260902020503 | 57 | 255 | 0.0 | 4.0 | 0.00 | 0.27 | 0.00 | 100 | 1010.5 |
| 20260902020024 | 57 | 0 | 0.0 | 0.0 | 0.00 | 0.27 | 0.00 | 100 | 1010.6 |
| 20260902015503 | 57 | 255 | 0.0 | 2.0 | 0.00 | 0.27 | 0.00 | 100 | 1010.6 |
| 20260902015003 | 57 | 255 | 1.0 | 2.0 | 0.00 | 0.27 | 0.00 | 100 | 1010.5 |
| 20260902014524 | 57 | 255 | 1.0 | 2.0 | 0.00 | 0.27 | 0.00 | 100 | 1010.6 |
| 20260902014003 | 57 | 255 | 1.0 | 3.0 | 0.00 | 0.27 | 0.00 | 100 | 1010.5 |
| 20260902013503 | 57 | 256 | 1.0 | 3.0 | 0.00 | 0.27 | 0.00 | 100 | 1010.6 |
| 20260902013024 | 58 | 257 | 1.0 | 6.0 | 0.00 | 0.27 | 0.00 | 100 | 1010.5 |
| 20260902012524 | 58 | 257 | 2.0 | 6.0 | 0.00 | 0.27 | 0.00 | 100 | 1010.5 |
| 20260902012003 | 58 | 257 | 2.0 | 4.0 | 0.00 | 0.27 | 0.00 | 100 | 1010.4 |
| 20260902011503 | 58 | 257 | 1.0 | 4.0 | 0.00 | 0.27 | 0.00 | 100 | 1010.5 |
| 20260902011003 | 58 | 258 | 1.0 | 4.0 | 0.00 | 0.27 | 0.00 | 100 | 1010.5 |
| 20260902010503 | 58 | 258 | 1.0 | 4.0 | 0.00 | 0.27 | 0.00 | 100 | 1010.4 |
| 20260902010003 | 58 | 258 | 1.0 | 3.0 | 0.00 | 0.27 | 0.00 | 100 | 1010.4 |
| 20260902005503 | 58 | 253 | 2.0 | 6.0 | 0.00 | 0.27 | 0.00 | 100 | 1010.4 |
| 20260902005024 | 58 | 244 | 2.0 | 6.0 | 0.00 | 0.27 | 0.00 | 100 | 1010.4 |
| 20260902004503 | 58 | 229 | 2.0 | 5.0 | 0.00 | 0.27 | 0.00 | 100 | 1010.3 |
| 20260902004003 | 58 | 226 | 1.0 | 4.0 | 0.00 | 0.27 | 0.00 | 100 | 1010.4 |
| 20260902003524 | 58 | 225 | 0.0 | 4.0 | 0.00 | 0.27 | 0.00 | 100 | 1010.2 |
| 20260902003003 | 58 | 0 | 0.0 | 0.0 | 0.00 | 0.27 | 0.00 | 100 | 1010.3 |
| 20260902002503 | 58 | 0 | 0.0 | 0.0 | 0.00 | 0.27 | 0.00 | 100 | 1010.3 |
| 20260902002004 | 58 | 0 | 0.0 | 0.0 | 0.00 | 0.27 | 0.00 | 100 | 1010.2 |
| 20260902001504 | 58 | 0 | 0.0 | 0.0 | 0.00 | 0.27 | 0.00 | 100 | 1010.2 |
| 20260902001004 | 58 | 0 | 0.0 | 0.0 | 0.00 | 0.27 | 0.00 | 100 | 1010.2 |
| 20260902000504 | 58 | 0 | 0.0 | 0.0 | 0.00 | 0.27 | 0.00 | 100 | 1010.2 |
| 20260902000004 | 58 | 0 | 0.0 | 0.0 | 0.00 | 0.27 | 0.00 | 100 | 1010.2 |
| 20260901235504 | 58 | 225 | 0.0 | 2.0 | 0.00 | 0.27 | 0.00 | 100 | 1010.2 |
| 20260901235004 | 58 | 225 | 0.0 | 2.0 | 0.00 | 0.27 | 0.00 | 100 | 1010.3 |
| 20260901234504 | 58 | 225 | 0.0 | 2.0 | 0.00 | 0.27 | 0.00 | 100 | 1010.2 |
| 20260901234004 | 58 | 225 | 0.0 | 2.0 | 0.00 | 0.27 | 0.00 | 100 | 1010.3 |
| 20260901233504 | 58 | 225 | 0.0 | 2.0 | 0.00 | 0.27 | 0.00 | 100 | 1010.3 |
| 20260901233025 | 58 | 0 | 0.0 | 0.0 | 0.00 | 0.27 | 0.00 | 100 | 1010.3 |
| 20260901232504 | 58 | 0 | 0.0 | 0.0 | 0.00 | 0.27 | 0.00 | 100 | 1010.3 |
| 20260901232004 | 58 | 0 | 0.0 | 0.0 | 0.00 | 0.27 | 0.00 | 100 | 1010.4 |
| 20260901231525 | 58 | 0 | 0.0 | 0.0 | 0.00 | 0.27 | 0.00 | 100 | 1010.4 |
| 20260901231004 | 58 | 0 | 0.0 | 0.0 | 0.00 | 0.27 | 0.00 | 100 | 1010.3 |
| 20260901230504 | 58 | 0 | 0.0 | 0.0 | 0.00 | 0.27 | 0.00 | 100 | 1010.2 |